Flag for Norway Weather past 2 weeks in Fredrikstad, Norway

Now
25 °F

Sunny.


Feels Like: 25 °F
Forecast: 40 / 47 °F
Wind: No wind

Location: Rygge

Current Time: Mar 5, 2015 at 8:22:30 AM

Latest Report: Mar 5, 2015 at 7:50 AM


Visibility: 10 mi

Pressure: 30.24 "Hg

Humidity: 93%

Dew point: 23 °F

Location of FredrikstadLocation

Historic Weather in Fredrikstad — Graph

°F

Fredrikstad temperature yesterday

Maximum temperature yesterday: 43 °F (at 4:20 PM)
Minimum temperature yesterday: 25 °F (at 6:50 AM)
Average temperature yesterday: 34 °F

Past Weeks' High & Low Weather Summary

 TemperatureHumidityPressure
High45 °F (Feb 18, 7:20 AM)100% (Feb 19, 3:50 AM)30.24 "Hg (Feb 19, 3:50 AM)
Low23 °F (Mar 5, 6:50 AM)42% (Feb 22, 2:20 PM)29.00 "Hg (Feb 23, 12:50 PM)
Average37 °F89%29.53 "Hg
* Reported Feb 18 6:20 AM — Mar 5 6:50 AM, Fredrikstad, Weather by CustomWeather, © 2015

Note: Actual official high and low records may vary slightly from our data, if they occured in-between our weather recording intervals... More about our weather records

Advertising

Fredrikstad weather history for previous 24 hours

 ConditionsComfort  
Time TempWeatherWind HumidityBarometerVisibility
6:50 AM
Thu, Mar 5
23 °FClear.2 mph100%30.24 "Hg10 mi
6:20 AM25 °FClear.1 mph93%30.24 "Hg10 mi
5:50 AM25 °FClear.1 mph93%30.21 "Hg10 mi
5:20 AM25 °FCold.2 mph93%30.21 "HgN/A
4:20 AM25 °FCold.1 mph93%30.21 "HgN/A
3:50 AM30 °FChilly.3 mph75%30.18 "HgN/A
2:50 AM27 °FChilly.5 mph80%30.18 "HgN/A
2:20 AM32 °FChilly.8 mph69%30.18 "HgN/A
1:50 AM30 °FPassing clouds.3 mph75%30.15 "HgN/A
1:20 AM32 °FChilly.6 mph69%30.15 "HgN/A
12:50 AM34 °FChilly.6 mph65%30.15 "HgN/A
12:20 AM34 °FChilly.5 mph65%30.12 "HgN/A
11:50 PM
Wed, Mar 4
34 °FChilly.6 mph65%30.12 "HgN/A
11:20 PM34 °FChilly.6 mph65%30.12 "HgN/A
10:50 PM34 °FClear.6 mph65%30.09 "Hg10 mi
10:20 PM34 °FClear.7 mph65%30.09 "Hg10 mi
9:50 PM36 °FClear.6 mph60%30.07 "Hg10 mi
9:20 PM34 °FClear.7 mph65%30.07 "Hg10 mi
8:50 PM36 °FClear.7 mph60%30.07 "Hg10 mi
8:20 PM36 °FClear.8 mph60%30.04 "Hg10 mi
7:50 PM36 °FClear.6 mph60%30.04 "Hg10 mi
7:20 PM37 °FClear.6 mph52%30.04 "Hg10 mi
6:50 PM37 °FPassing clouds.5 mph56%30.01 "HgN/A
6:20 PM39 °FClear.3 mph48%30.01 "Hg10 mi
5:50 PM41 °FSunny.3 mph45%29.98 "Hg10 mi
5:20 PM41 °FSunny.5 mph45%29.98 "Hg10 mi
4:50 PM41 °FSunny.6 mph45%29.95 "Hg10 mi
4:20 PM43 °FSunny.6 mph42%29.95 "Hg10 mi
3:50 PM41 °FSunny.7 mph49%29.92 "Hg10 mi
3:20 PM41 °FSunny.7 mph45%29.92 "Hg10 mi
2:50 PM41 °FSunny.9 mph45%29.89 "Hg10 mi
2:20 PM41 °FPassing clouds.9 mph45%29.89 "HgN/A
1:50 PM41 °FPassing clouds.7 mph45%29.86 "HgN/A
1:20 PM41 °FSunny.9 mph45%29.86 "Hg10 mi
12:50 PM39 °FPassing clouds.8 mph48%29.86 "HgN/A
12:20 PM39 °FSunny.8 mph52%29.83 "Hg10 mi
11:50 AM37 °FPassing clouds.5 mph60%29.83 "HgN/A
11:20 AM36 °FSunny.3 mph65%29.80 "Hg10 mi
10:50 AM36 °FPassing clouds.3 mph65%29.80 "HgN/A
10:20 AM34 °FSunny.2 mph75%29.77 "Hg10 mi
9:50 AM34 °FSunny.2 mph81%29.77 "Hg10 mi
9:20 AM30 °FSunny.1 mph86%29.77 "Hg10 mi
8:50 AM30 °FSunny.No wind93%29.74 "Hg10 mi
8:20 AM27 °FSunny.1 mph93%29.74 "Hg10 mi
Weather by CustomWeather, © 2015

See weather overviewHow to use our weather pages